﻿Date (monthly),Precipitation (kAc-Ft),Evaporation (kAc-Ft),Natural Runoff (kAc-Ft),Diversions (kAc-Ft),Change in storage (kAc-Ft),,
1970-01-01,12.32871002,6.425217626,6.804113807,13.6687062,-0.9611,,
1970-02-01,3.676513986,9.057319151,7.070838756,-15.12921641,16.81925,,
1970-03-01,2.656069037,14.09999458,7.324370697,-13.25000485,9.13045,,
1970-04-01,4.788618753,19.44769092,9.925181803,-7.136640361,2.40275,,
1970-05-01,1.308201657,29.17849132,26.4325352,6.251045534,-7.6888,,
1970-06-01,3.260817339,33.90943262,34.58799944,12.10873416,-8.16935,,
1970-07-01,2.70352707,40.64951546,18.8999569,-7.032281494,-12.01375,,
1970-08-01,0.807222345,37.01856078,8.103172999,-17.55114544,-10.55702,,
1970-09-01,1.095617496,27.8639888,5.017054422,0.657343114,-22.40866,,
1970-10-01,1.022877228,18.53387423,3.458523847,8.356186843,-22.40866,,
1970-11-01,11.90464741,10.07614187,3.69663493,19.72326047,-14.19812,,
1970-12-01,5.93944245,6.827091921,4.838216044,4.896606573,-0.94604,,
1971-01-01,3.635823117,6.669151087,4.794517087,0.342129117,1.41906,,
1971-02-01,1.786586478,8.839399075,5.551428793,-2.447423804,0.94604,,
1971-03-01,3.990705574,13.90757551,7.262128402,-1.235681538,-1.41906,,
1971-04-01,3.920695924,19.241295,10.23251472,-5.088084352,0,,
1971-05-01,6.585893033,23.93080842,23.64888819,11.50719281,-5.20322,,
1971-06-01,1.166788165,33.34340584,35.21466688,6.349189198,-3.31114,,
1971-07-01,2.968214977,40.30562495,21.80004875,-1.346761228,-14.1906,,
1971-08-01,1.776192849,35.87650932,10.67038562,-11.60822085,-11.82171,,
1971-09-01,1.552960053,26.70215368,4.97386137,-3.28305226,-16.89228,,
1971-10-01,2.142333147,17.24541675,3.417073348,11.30625974,-22.99227,,
1971-11-01,4.245009195,9.929847209,4.543748012,8.219449998,-9.36054,,
1971-12-01,14.06279984,7.009451086,5.417931761,19.44958051,-6.9783,,
1972-01-01,2.910138107,6.492649502,5.676421228,-1.627850167,3.72176,,
1972-02-01,1.917626058,8.969904432,6.116975936,-3.726622438,2.79132,,
1972-03-01,0.905879607,15.56946404,7.914916559,-3.957347876,-2.79132,,
1972-04-01,4.626687524,19.07919882,10.42686403,-4.025647269,0,,
1972-05-01,2.01017015,27.95138427,25.68003797,4.856243853,-5.11742,,
1972-06-01,2.254158305,33.53865728,33.60967349,11.62957452,-9.3044,,
1972-07-01,1.85325417,39.99632316,14.26368658,-13.17932241,-10.70006,,
1972-08-01,1.281662835,34.88696101,6.470350505,-8.558837672,-18.57611,,
1972-09-01,4.530995251,25.29421674,5.043982746,1.78166126,-17.5009,,
1972-10-01,4.492357926,15.94678317,3.29112999,3.350454745,-11.51375,,
1972-11-01,5.624876908,9.13357696,3.609252024,9.772101972,-9.67155,,
1972-12-01,2.695735133,6.730529947,5.528938399,6.550033584,-5.05589,,
1973-01-01,8.457193874,6.304806677,5.004673372,8.978940569,-1.82188,,
1973-02-01,12.15030836,7.647070601,6.206526675,5.213644437,5.49612,,
1973-03-01,4.870220228,11.03876948,8.062417987,-5.935481266,7.82935,,
1973-04-01,3.930827986,18.6386156,14.55990932,-3.832278293,3.6844,,
1973-05-01,3.415200446,28.32282183,38.79238541,18.02971403,-4.14495,,
1973-06-01,2.60007623,34.17871538,41.78002083,15.72798168,-5.5266,,
1973-07-01,1.655570295,39.30844881,21.22987301,-5.440925506,-10.98208,,
1973-08-01,2.087195873,34.77494145,8.582621704,-13.62931387,-10.47581,,
1973-09-01,1.117781804,25.82204472,3.845228846,-0.818354073,-20.04068,,
1973-10-01,2.469179446,17.62227034,3.097111444,6.506530545,-18.56251,,
1973-11-01,10.15692804,9.323267054,4.435403682,18.33037467,-13.06131,,
1973-12-01,6.283721071,6.651536581,6.556701272,9.792005762,-3.60312,,
1974-01-01,8.923820635,6.325677587,7.054062196,5.598695243,4.05351,,
1974-02-01,1.038925342,8.505036853,6.269910418,-8.852831093,7.65663,,
1974-03-01,6.950957211,12.61539814,7.168178546,1.053347619,0.45039,,
1974-04-01,4.759423862,18.10635634,10.33913786,-1.656624618,-1.35117,,
1974-05-01,1.46273791,27.3384046,31.31240525,11.74219856,-6.30546,,
1974-06-01,1.198463658,34.23020749,41.36950722,17.79595338,-9.45819,,
1974-07-01,5.237461022,37.50656878,25.11035738,7.688519617,-14.84727,,
1974-08-01,1.537730051,33.68462207,16.36233267,-3.764429348,-12.02013,,
1974-09-01,1.392134046,26.93619722,9.897718758,-2.29064442,-13.3557,,
1974-10-01,4.286268056,17.05091047,4.719522704,8.426910292,-16.47203,,
1974-11-01,3.441991327,9.654052088,4.610947334,6.328906572,-7.93002,,
1974-12-01,4.808325027,6.806928171,3.522753,6.799709856,-5.27556,,
1975-01-01,3.22343267,6.593154115,3.688743687,7.353102242,-7.03408,,
1975-02-01,7.165174516,7.962499792,4.592976667,4.674911392,-0.87926,,
1975-03-01,8.105259209,11.73055549,5.943198573,-2.957657709,5.27556,,
1975-04-01,6.042327794,16.2713459,8.641856438,-3.345681665,1.75852,,
1975-05-01,2.241164842,25.90224564,28.34012567,4.679044873,0,,
1975-06-01,1.667366605,31.91150111,43.40815041,18.4395759,-5.27556,,
1975-07-01,1.538406167,37.34158243,22.47507201,-0.139204249,-13.1889,,
1975-08-01,2.720462499,32.30658148,11.54542177,-1.390737215,-16.64996,,
1975-09-01,4.352588986,25.68199443,9.509230938,4.649405493,-16.46958,,
1975-10-01,4.758403306,15.55771639,4.683496261,-0.048076823,-6.06774,,
1975-11-01,1.472267003,9.537615925,6.343253756,1.745184835,-3.46728,,
1975-12-01,1.399513689,6.750653578,8.878043401,11.32828351,-7.80138,,
1976-01-01,2.309254083,6.610848216,6.228770957,4.527636824,-2.60046,,
1976-02-01,5.480336226,8.137726767,5.547497855,3.323517313,-0.43341,,
1976-03-01,1.861747986,13.18078245,6.330351715,-7.589142745,2.60046,,
1976-04-01,4.207039309,17.71933114,7.847488706,-5.664803121,0,,
1976-05-01,2.333215062,27.1778456,20.85065186,1.633631316,-5.62761,,
1976-06-01,1.101228797,31.54021509,19.76909718,-6.829679113,-3.84021,,
1976-07-01,6.122122503,36.79631174,10.24169938,-1.658129859,-18.77436,,
1976-08-01,2.517944967,30.37417619,6.000548052,-12.46850317,-9.38718,,
1976-09-01,5.77707868,23.76801692,4.621636056,0.644777815,-14.01408,,
1976-10-01,1.299237201,17.45154357,3.071253251,-5.953293114,-7.12776,,
1976-11-01,0.491325971,10.45477133,2.446517371,1.287952015,-8.80488,,
1976-12-01,0.547022043,8.153167606,2.387066161,11.5521206,-16.7712,,
1977-01-01,3.187224642,6.54347844,2.721426141,6.460932344,-7.09576,,
1977-02-01,2.294520988,9.158446776,4.40264667,1.651520881,-4.1128,,
1977-03-01,3.295205504,12.18742825,5.864817467,-8.374045278,5.34664,,
1977-04-01,2.497329485,20.09066233,7.733527922,-7.803404923,-2.0564,,
1977-05-01,5.08513401,20.86983986,15.80504627,4.544420421,-4.52408,,
1977-06-01,6.484813587,31.32101882,24.61528227,6.770837041,-6.99176,,
1977-07-01,1.813903312,37.1838904,9.506777322,-25.45192977,-0.41128,,
1977-08-01,1.391287632,32.26928456,4.778733142,-12.52702379,-13.57224,,
1977-09-01,1.640839529,23.85659862,3.531982437,-4.716436652,-13.96734,,
1977-10-01,0.903741644,17.12673587,3.011186196,2.512601969,-15.72441,,
1977-11-01,3.711847061,9.872566944,4.145938662,8.468158779,-10.48294,,
1977-12-01,11.44718576,6.857175347,5.023111354,13.64502177,-4.0319,,
1978-01-01,9.833138378,6.1774528,4.825924059,4.046519636,4.43509,,
1978-02-01,13.0333605,7.308521201,5.218028147,-1.152832555,12.0957,,
1978-03-01,9.894098504,11.94735525,7.395331001,-1.915345746,7.25742,,
1978-04-01,5.874038725,16.0338404,10.65270667,-10.05475501,10.54766,,
1978-05-01,1.659533699,23.92632099,29.66772625,7.812218954,-0.41128,,
1978-06-01,1.328167472,29.83467566,52.01252384,30.41687566,-6.91086,,
1978-07-01,1.841889274,36.01490095,41.60118644,13.07283476,-5.64466,,
1978-08-01,1.036144916,32.00984612,20.29194067,-5.037100529,-5.64466,,
1978-09-01,5.417842058,21.75182784,12.60320606,7.155350274,-10.88613,,
1978-10-01,1.827396554,16.93666586,5.645447254,5.043037952,-14.50686,,
1978-11-01,4.074089543,8.915103394,10.0685598,8.784435947,-3.55689,,
1978-12-01,3.136541862,6.342572879,8.266254288,5.455433272,-0.39521,,
1979-01-01,8.959408102,6.233641219,8.878576807,19.11333369,-7.50899,,
1979-02-01,5.370762471,7.390727982,6.957619047,-1.385706464,6.32336,,
1979-03-01,7.506629474,11.45057893,7.450674776,1.135465323,2.37126,,
1979-04-01,3.89296295,17.05061955,10.91322429,-7.82525231,5.58082,,
1979-05-01,2.092214806,24.44228846,32.6708809,13.92557725,-3.60477,,
1979-06-01,0.818617318,30.85904062,38.52561228,14.41333897,-5.92815,,
1979-07-01,2.210590986,35.07520995,20.2654889,1.628429933,-14.22756,,
1979-08-01,1.013810813,30.01091841,9.524531155,-8.406696446,-11.06588,,
1979-09-01,1.393239869,24.47045413,5.695498578,-0.963615683,-16.4181,,
1979-10-01,1.695271127,15.45120474,3.584180636,2.234007022,-12.40576,,
1979-11-01,2.356981868,8.951609162,5.576501671,9.061554377,-10.07968,,
1979-12-01,4.721951336,6.584337499,7.194808185,12.69114202,-7.35872,,
1980-01-01,14.12679623,6.291440303,9.871647477,16.93884341,0.76816,,
1980-02-01,12.87602009,7.396188933,8.111372004,-1.14063684,14.73184,,
1980-03-01,4.23655637,11.00795065,7.987763459,-13.51547082,14.73184,,
1980-04-01,5.75018624,17.25804692,15.10983405,-0.274826631,3.8768,,
1980-05-01,4.129863599,22.14151047,33.50814557,2.947668701,12.54883,,
1980-06-01,0.54708447,29.30281798,45.15160464,11.65335113,4.74252,,
1980-07-01,1.465527274,35.91271561,46.4832873,17.56903896,-5.53294,,
1980-08-01,0.663004503,31.86563654,21.1318842,-12.83721784,2.76647,,
1980-09-01,2.322489141,23.57790139,11.27537777,-4.447094471,-5.53294,,
1980-10-01,1.401938693,16.07740905,5.492910373,-0.19061998,-8.99194,,
1980-11-01,2.239296506,8.989568148,8.744006264,9.359654622,-7.36592,,
1980-12-01,4.222058407,6.48609599,7.683158303,9.68360072,-4.26448,,
1981-01-01,7.409582545,6.120396394,6.914672431,7.428498582,0.77536,,
1981-02-01,3.416640722,7.520922712,6.15504668,-5.315155309,7.36592,,
1981-03-01,6.39397119,10.8853214,6.610239847,-2.533270359,4.65216,,
1981-04-01,3.680555803,17.93979747,11.3797112,-4.042570463,1.16304,,
1981-05-01,3.454071315,23.02789649,27.02161716,7.835471985,-0.38768,,
1981-06-01,0.528774144,30.60198886,31.69678079,7.826446077,-6.20288,,
1981-07-01,1.026368053,35.61179487,12.28947102,-11.0532358,-11.24272,,
1981-08-01,0.680898886,31.64035624,6.841497916,-7.83539944,-16.28256,,
1981-09-01,1.326860172,23.45932643,4.838793653,-0.897032603,-16.39664,,
1981-10-01,3.499766605,14.7101455,3.167692312,3.752193418,-11.79488,,
1981-11-01,9.662560929,8.836383317,5.213841729,14.41057934,-8.37056,,
1981-12-01,2.628071698,6.412066442,6.707392498,2.542917754,0.38048,,
1982-01-01,7.457182992,6.074212536,6.771108822,11.19791928,-3.04384,,
1982-02-01,4.337439993,7.668616738,7.528050556,2.67495381,1.52192,,
1982-03-01,5.233835828,10.64626736,8.202591144,-7.102320393,9.89248,,
1982-04-01,10.80041313,16.29167375,15.3757377,10.26495709,-0.38048,,
1982-05-01,1.572162015,24.1139632,38.46611769,7.553756507,8.37056,,
1982-06-01,4.356390482,27.648029,55.69936325,39.25636474,-6.84864,,
1982-07-01,2.063016815,34.33569736,40.15855369,7.124913147,0.76096,,
1982-08-01,2.903796279,31.32868844,23.43275379,-16.40653837,11.4144,,
1982-09-01,5.338316155,21.9743385,18.65078503,-1.409557307,3.42432,,
1982-10-01,5.645683477,14.74140908,15.45552785,5.218362246,1.14144,,
1982-11-01,7.727079314,8.537778644,14.98783296,-1.954226369,16.13136,,
1982-12-01,7.793317719,6.32991142,15.37015918,1.326365481,15.5072,,
1983-01-01,9.332883876,6.080335179,13.0065402,-2.022111106,18.2812,,
1983-02-01,8.564825298,7.162989246,10.29086944,-8.85821451,20.55092,,
1983-03-01,9.875749656,10.70898367,8.755477537,-21.19142648,29.11367,,
1983-04-01,4.893612305,16.02799821,12.38010828,-22.94567763,24.1914,,
1983-05-01,0.848192389,24.19244883,35.85744397,-1.413702475,13.92689,,
1983-06-01,1.012466832,30.8584506,74.04053758,32.67871381,11.51584,,
1983-07-01,0.667988589,36.00482655,54.3740188,-17.91873916,36.95592,,
1983-08-01,6.451370516,31.88486599,38.37414883,-3.830546638,16.7712,,
1983-09-01,4.00406215,24.83502644,18.64848612,-25.53186817,23.34939,,
1983-10-01,4.274100499,16.08171598,9.712059075,-10.6293564,8.5338,,
1983-11-01,12.62250091,8.8237637,14.39151846,7.096315669,11.09394,,
1983-12-01,11.1646898,6.348861033,17.06881436,6.382683128,15.50196,,
1984-01-01,3.236042988,6.156138497,15.33047674,-17.92831877,30.3387,,
1984-02-01,4.491864384,8.227957157,11.22350455,-10.04180822,17.52922,,
1984-03-01,2.370073809,12.90741477,9.771496245,-18.35104472,17.5852,,
1984-04-01,3.913252132,17.58949572,12.51896459,-8.630988992,7.47371,,
1984-05-01,0.989256742,27.37442189,35.13892096,9.63301581,-0.87926,,
1984-06-01,1.280278726,31.26591588,38.22590213,15.27434498,-7.03408,,
1984-07-01,5.201548012,37.90131855,26.83988916,6.010128618,-11.87001,,
1984-08-01,2.468386774,33.33802906,17.38766001,-6.887532267,-6.59445,,
1984-09-01,1.607447743,26.20610725,10.04793288,-14.11109663,-0.43963,,
1984-10-01,2.563166873,15.58281419,3.691265449,-4.052821871,-5.27556,,
1984-11-01,7.829537471,9.264090151,7.167686896,18.39532422,-12.66219,,
1984-12-01,3.181138748,6.446389302,10.3199029,10.08852234,-3.03387,,
1985-01-01,3.546549061,6.284157857,7.836834867,0.765126072,4.3341,,
1985-02-01,2.674982596,7.570072877,6.208619935,-3.453980346,4.76751,,
1985-03-01,4.927706847,11.97595841,7.065037796,-4.37951377,4.3963,,
1985-04-01,2.942894621,19.26767384,14.3180873,-4.644471921,2.63778,,
1985-05-01,1.027170637,26.05390815,28.13838389,2.672016375,0.43963,,
1985-06-01,1.991560214,32.92880752,28.34483316,8.781985853,-11.3744,,
1985-07-01,3.962758247,37.10649062,12.2584727,-4.849089682,-16.03617,,
1985-08-01,0.840563371,33.13985158,5.441028609,-13.8559596,-13.0023,,
1985-09-01,6.779907232,23.16009337,6.448704562,5.163948426,-15.09543,,
1985-10-01,3.427432952,16.26617549,3.883577674,-1.274744861,-7.68042,,
1985-11-01,6.639173866,8.736906788,6.061630859,9.937557937,-5.97366,,
1985-12-01,4.157127767,6.49535657,7.962916471,7.758137668,-2.13345,,
1986-01-01,7.606104569,6.302313284,6.998340444,3.608541729,4.69359,,
1986-02-01,24.26486509,7.51383874,9.630221266,25.10117762,1.28007,,
1986-03-01,8.1581394,12.155986,12.11320928,-17.22734732,25.34271,,
1986-04-01,4.151996511,18.48802177,19.12263541,-18.61752985,23.40414,,
1986-05-01,1.008213574,26.441598,40.913611,1.542686581,13.93754,,
1986-06-01,0.773849406,33.02528754,59.05120024,8.774932112,18.02483,,
1986-07-01,2.053981905,37.68551857,33.46120417,-16.23849249,14.06816,,
1986-08-01,1.027435184,34.44239564,14.65550535,-24.47464511,5.71519,,
1986-09-01,2.025974665,23.9365606,6.614571317,-3.426004617,-11.87001,,
1986-10-01,0.764460781,16.13320656,4.413932218,10.14742644,-21.10224,,
1986-11-01,0.740421656,9.56363034,8.343184071,4.795535387,-5.27556,,
1986-12-01,2.471672365,6.528560919,8.845189467,9.618010913,-4.82971,,
1987-01-01,6.704056472,6.239914853,6.837247121,2.47167874,4.82971,,
1987-02-01,5.243967522,7.975951014,5.757193116,-1.371090377,4.3963,,
1987-03-01,4.011441837,11.94034064,6.806780158,-5.518418641,4.3963,,
1987-04-01,3.104476858,19.55560007,9.299989803,-11.5474334,4.3963,,
1987-05-01,5.366319091,24.3867724,21.55315752,2.532704212,0,,
1987-06-01,2.412789488,32.18634853,20.81538758,-4.561871466,-4.3963,,
1987-07-01,1.002088396,36.41639029,7.415272489,-19.2064294,-8.7926,,
1987-08-01,0.622482312,33.27244734,4.829987977,-6.08727705,-21.7327,,
1987-09-01,1.533540789,25.19655588,4.88318407,-1.443431018,-17.3364,,
1987-10-01,4.389028204,16.71784462,3.509274529,-0.151341884,-8.6682,,
1987-11-01,6.372167752,8.799479119,4.860834191,10.96732282,-8.5338,,
1987-12-01,4.577899546,6.211944397,6.019791877,4.385747026,0,,
1988-01-01,6.0800897,6.248961917,6.455185844,-2.247486372,8.5338,,
1988-02-01,1.37875116,8.958445436,6.201358232,-5.712436044,4.3341,,
1988-03-01,0.592501414,13.87232335,6.550001122,-11.06392081,4.3341,,
1988-04-01,5.024316587,18.42393169,7.06418837,-2.001326733,-4.3341,,
1988-05-01,2.005743003,25.30676767,18.16108536,11.99486069,-17.1348,,
1988-06-01,2.059255668,30.82672103,22.97571468,2.742049324,-8.5338,,
1988-07-01,1.695085639,38.04217562,8.317893967,-23.76229601,-4.2669,,
1988-08-01,1.150000966,33.20661279,5.088091239,-5.70812058,-21.2604,,
1988-09-01,1.718643581,25.01386993,4.029129274,-6.687697073,-12.5784,,
1988-10-01,0.619114489,17.82316942,2.979995548,-1.645659388,-12.5784,,
1988-11-01,4.436834813,9.63708309,3.210040633,10.58819236,-12.5784,,
1988-12-01,4.569675264,6.548468421,4.281278757,10.5280856,-8.2256,,
1989-01-01,2.503685039,6.081387646,4.424423932,0.846721325,0,,
1989-02-01,2.323945229,7.728496225,6.328263809,0.923712813,0,,
1989-03-01,3.656807888,12.71706481,7.905422466,-5.267634459,4.1128,,
1989-04-01,2.887694551,19.33179127,13.50953421,-7.047362502,4.1128,,
1989-05-01,5.138289474,24.63759296,23.8784496,8.491946123,-4.1128,,
1989-06-01,2.686298202,30.72727488,27.27141678,3.343240103,-4.1128,,
1989-07-01,0.891509089,37.73429345,10.78609317,-9.605491188,-16.4512,,
1989-08-01,2.312510315,31.88688074,3.953048945,-13.28292148,-12.3384,,
1989-09-01,3.904450788,24.43958554,3.307920054,-1.018714696,-16.2085,,
1989-10-01,1.087056022,16.16796438,2.907371543,-0.077836817,-12.0957,,
1989-11-01,1.305131448,9.555258109,3.590711117,-0.627515543,-4.0319,,
1989-12-01,0.376770367,6.983771134,4.002415612,-1.395015155,-1.20957,,
1990-01-01,7.072523137,6.295939173,4.907110409,3.667744373,2.01595,,
1990-02-01,3.47024526,7.353173666,5.945954204,-8.016724202,10.07975,,
1990-03-01,0.788139718,12.75101824,6.790554576,-13.23612394,8.0638,,
1990-04-01,4.929977065,18.59392072,9.957721329,-8.947692323,5.24147,,
1990-05-01,2.418785712,24.18479938,18.52966349,-3.236350179,0,,
1990-06-01,1.341132196,31.22316084,21.26790542,-8.614123222,0,,
1990-07-01,2.989382365,36.50291803,10.88675014,-18.59488552,-4.0319,,
1990-08-01,0.889446142,31.65416972,5.214690533,-21.51813304,-4.0319,,
1990-09-01,2.431138951,24.43731666,4.292334283,-1.586243421,-16.1276,,
1990-10-01,0.640637418,17.07575436,3.043878225,-9.35933872,-4.0319,,
1990-11-01,1.102150446,9.317007124,3.038050729,2.886994051,-8.0638,,
1990-12-01,0.995386524,6.63892318,2.796783344,1.105346688,-3.9521,,
1991-01-01,1.989109066,6.201631515,2.673216849,2.412794401,-3.9521,,
1991-02-01,1.461006999,8.688325237,4.138789282,-3.088528956,0,,
1991-03-01,13.19874173,11.12971007,5.777246508,3.894178165,3.9521,,
1991-04-01,2.570005417,17.14928801,6.775821868,-19.81936072,12.0159,,
1991-05-01,2.575456553,22.75795434,18.5989269,-1.583570886,0,,
1991-06-01,0.798078743,29.79756596,29.60115833,4.633571115,-4.0319,,
1991-07-01,1.36139433,36.96489832,12.17200137,-27.46340262,4.0319,,
1991-08-01,0.832001449,32.20433341,4.639346584,-18.66918538,-8.0638,,
1991-09-01,1.953114906,24.83595903,3.651994349,-3.422449771,-15.8084,,
1991-10-01,3.735949452,16.95016049,2.890032787,1.532121754,-11.8563,,
1991-11-01,1.832372193,9.463122375,3.465872217,-0.212777965,-3.9521,,
1991-12-01,3.148610323,6.576881944,4.033490337,4.557318716,-3.9521,,
1992-01-01,3.865758934,5.905864514,4.119301879,2.079196299,0,,
1992-02-01,6.594115937,7.961238331,5.66590374,0.346681346,3.9521,,
1992-03-01,3.274170384,12.17191811,6.822133278,-13.93191445,11.8563,,
1992-04-01,2.559948018,19.0611489,11.22785844,-9.225442437,3.9521,,
1992-05-01,1.133845653,26.2372271,23.82632639,2.675044937,-3.9521,,
1992-06-01,1.935950388,29.68785966,20.74968997,-3.050119295,-3.9521,,
1992-07-01,4.067550347,34.70111487,9.519884134,-13.20948038,-7.9042,,
1992-08-01,1.514805305,32.21786047,4.672511752,-29.98264342,3.9521,,
1992-09-01,1.099795068,24.81849423,3.632918005,-4.352681158,-15.7331,,
1992-10-01,2.178207591,16.78745983,2.782306097,-4.073346145,-7.7536,,
1992-11-01,0.49377149,8.89779098,3.062942983,2.412523493,-7.7536,,
1992-12-01,9.023469735,6.218717179,4.17543365,10.85698621,-3.8768,,
1993-01-01,12.43042061,5.874983368,5.031270362,7.709907599,3.8768,,
1993-02-01,11.17020866,7.128654166,5.690269224,-5.775376279,15.5072,,
1993-03-01,4.731086571,11.72375021,7.897518085,-10.87614555,11.781,,
1993-04-01,2.748329773,18.00741748,12.23655249,-18.83093521,15.8084,,
1993-05-01,1.006159263,24.78327276,34.53233373,2.851020238,7.9042,,
1993-06-01,1.416202356,29.47032393,39.68559376,7.679372189,3.9521,,
1993-07-01,0.636231814,35.70955643,29.31190571,-13.74541891,7.984,,
1993-08-01,0.477899663,31.95571741,12.09654362,-19.38127413,0,,
1993-09-01,0.860497089,25.05124044,5.601391666,-14.55745169,-4.0319,,
1993-10-01,0.905638235,15.55854253,3.562700216,-3.186004079,-7.9042,,
1993-11-01,2.548338148,9.135700116,4.347704384,1.712442416,-3.9521,,
1993-12-01,1.905637076,6.495415123,6.74721467,2.157436623,0,,
1994-01-01,2.719870045,6.416073811,6.590868023,-1.057435743,3.9521,,
1994-02-01,6.443691266,7.725220293,5.915930182,-7.301698845,11.9361,,
1994-03-01,2.698585292,12.79967516,6.860062883,-11.30482698,8.0638,,
1994-04-01,3.710996768,18.09438586,10.047115,-12.40007408,8.0638,,
1994-05-01,7.578945443,24.54472265,22.38599653,5.420219324,0,,
1994-06-01,0.369805002,32.06311571,23.69812971,-20.090881,12.0957,,
1994-07-01,0.969486273,37.64880485,7.421792866,-21.19372571,-8.0638,,
1994-08-01,0.466119954,33.46859615,3.781821062,-17.12495513,-12.0957,,
1994-09-01,2.286064654,24.47192558,2.974046283,-3.164014648,-16.0478,,
1994-10-01,2.545607136,15.81564641,2.838248038,1.424508762,-11.8563,,
1994-11-01,6.173090645,8.278596105,3.763774498,5.610369039,-3.9521,,
1994-12-01,2.815617592,6.393027567,6.514021057,2.936611081,0,,
1995-01-01,16.43978343,5.953047841,8.402487926,18.88922351,0,,
1995-02-01,1.746973791,8.156744271,8.304164021,-21.89800646,23.7924,,
1995-03-01,18.15057769,11.49896001,10.81287107,13.43258876,4.0319,,
1995-04-01,4.931977401,17.41789588,11.74119621,-32.99992226,32.2552,,
1995-05-01,7.308746454,23.11906135,31.48908235,11.56596746,4.1128,,
1995-06-01,3.53159744,29.16009133,58.50073436,20.53384047,12.3384,,
1995-07-01,1.427454949,36.00079338,66.78056784,11.64322941,20.564,,
1995-08-01,0.564287094,33.3089087,32.74902873,-29.26519287,29.2696,,
1995-09-01,0.897701553,25.76568231,12.79865943,-24.64772132,12.5784,,
1995-10-01,0.735984408,17.3022747,6.582481432,-5.791008864,-4.1928,,
1995-11-01,0.766938176,10.35848749,8.66618227,-0.925367044,0,,
1995-12-01,8.730179509,6.996527753,10.91163142,12.64528318,0,,
1996-01-01,7.355512974,6.731810342,8.92667067,-3.102126698,12.6525,,
1996-02-01,11.16788173,8.104084729,9.639181826,-0.097721176,12.8007,,
1996-03-01,5.546532027,12.31366024,9.638910111,-14.1958181,17.0676,,
1996-04-01,4.611822178,18.48395685,14.54335627,-16.5307784,17.202,,
1996-05-01,2.65726364,25.50038904,36.02753297,8.850307571,4.3341,,
1996-06-01,0.935704642,31.9891051,47.03610035,7.314499887,8.6682,,
1996-07-01,2.954528784,38.63604005,26.18273389,-26.83517737,17.3364,,
1996-08-01,0.791655717,33.88570513,12.66340416,-29.16104526,8.7304,,
1996-09-01,0.972048288,25.37215771,6.884653991,-13.11915543,-4.3963,,
1996-10-01,4.48516037,16.83287265,4.904631625,5.559219349,-13.0023,,
1996-11-01,11.567139,9.291163523,9.510921996,16.12099747,-4.3341,,
1996-12-01,11.02398504,7.180433246,11.51866652,-1.974181678,17.3364,,
1997-01-01,16.49545819,6.280074049,24.51127778,17.14146192,17.5852,,
1997-02-01,1.494743237,8.365654002,11.18675928,-26.51385149,30.8297,,
1997-03-01,0.567377533,13.55429915,10.25033719,-11.64038442,8.9038,,
1997-04-01,2.884008305,18.61653113,15.6043952,-9.031927624,8.9038,,
1997-05-01,1.836353352,27.05761124,39.61657176,14.39531388,0,,
1997-06-01,4.237061988,31.65146072,41.96501585,1.194917118,13.3557,,
1997-07-01,3.697945359,36.84599929,23.03924243,-28.0204115,17.9116,,
1997-08-01,0.829588444,33.9379495,14.63934499,-27.47681607,9.0078,,
1997-09-01,2.34084354,25.58405577,8.555693131,-5.679719097,-9.0078,,
1997-10-01,0.826674271,17.04383485,4.581307525,-2.628053055,-9.0078,,
1997-11-01,5.477347312,9.048656681,6.110431748,11.44292238,-8.9038,,
1997-12-01,3.575800209,6.580844944,6.557601576,-0.899343159,4.4519,,
1998-01-01,7.449316551,6.468144126,7.007332172,3.536604596,4.4519,,
1998-02-01,18.38694713,7.656346789,6.505372288,-0.77962737,18.0156,,
1998-03-01,6.448842747,12.00161686,8.453510008,-10.61096411,13.5117,,